Weather Roundup
Issued by NWS Chicago, IL

Home | Current Version | Previous Version | Graphics & Text | Print | Product List | Glossary On
Versions: 1 2 3 4 5 6 7 8 9 10 11 12 13 14 15 16 17 18 19 20 21 22 23 24 25 26 27 28 29 30 31 32 33 34 35 36 37 38 39 40 41 42 43 44 45 46 47 48 49 50
000
NZUS59 KLOT 052003
HRRLOT

CHICAGO AREA WEATHER ROUNDUP
NATIONAL WEATHER SERVICE CHICAGO/ROMEOVILLE IL
200 PM CST MON DEC 05 2016

NOTE: "FAIR" INDICATES FEW OR NO CLOUDS BELOW 12,000 FEET WITH NO
SIGNIFICANT WEATHER AND/OR OBSTRUCTIONS TO VISIBILITY.

* THESE STATIONS ARE NOT UNDER NWS QUALITY CONTROL. THEY ALSO MAY NOT
  REPORT WEATHER SUCH AS PRECIPITATION OR FOG.

ILZ005-006-012>014-019>023-052100-
NORTHEAST ILLINOIS

CITY           SKY/WX    TMP DP  RH WIND       PRES   REMARKS
OHARE          CLOUDY    32  30  92 S10       30.00  WCI  24
MIDWAY         CLOUDY    33  29  85 S10       30.02S WCI  25
AURORA         CLOUDY    33  31  92 S12       30.00S FOG     WCI  24
LANSING*       CLOUDY    32  32 100 S10       30.03R WCI  24
WAUKEGAN       CLOUDY    32  31  96 SW15      29.98F FOG     WCI  22
DUPAGE AIRPORT FOG       32  29  88 S14       29.99S VSB 1   WCI  22
WHEELING       CLOUDY    32  30  92 S9        30.00F WCI  24
NORTHERLY ISL    N/A     33  30  89 S10         N/A  WCI  25
$$

WIZ051-052-058>065-066-070>072-052100-
SOUTHEAST WISCONSIN

CITY           SKY/WX    TMP DP  RH WIND       PRES   REMARKS
MILWAUKEE      CLOUDY    34  31  88 SW12      29.97S FOG     WCI  25
KENOSHA*       CLOUDY    33  30  88 S10       29.97F FOG     WCI  25
RACINE*        CLOUDY    33  31  92 S8        29.99S FOG     WCI  26
WAUKESHA       CLOUDY    30  28  93 S6        29.96F FOG     WCI  24
$$

INZ001>003-010>013-019-020-052100-
NORTHWEST INDIANA

CITY           SKY/WX    TMP DP  RH WIND       PRES   REMARKS
GARY*          NOT AVBL
MICHIGAN CITY* NOT AVBL
RENSSELAER*    NOT AVBL
VALPARAISO     CLOUDY    33  30  88 S9        30.04S WCI  25
$$

LMZ740>746-052100-
SOUTHERN LAKE MICHIGAN

STATION/POSITION TIME  SKY/WX   TEMP WIND        PRES    VSBY
                                AIR  DIR/SP/G
                 (UTC)          (F)  (DEG/KT/KT) (MB)    (MI)
HARRISON CRIB    1940            34  210/ 14/ 16   N/A
BURNHAM HARBOR   2000            33  190/  7/ 14   N/A
CALUMET HARBOR   1930            32  180/ 12/ 16 1016.0R
BURNS HARBOR     1940            33  180/ 11/ 14 1017.3F
MICHIGAN CITY    NOT AVBL
$$

ABBREVIATIONS USED IN REMARKS
   TC - TEMPERATURE IN CELSIUS
  WCI - WIND CHILL INDEX
   HX - HEAT INDEX
  VSB - VISIBILITY
$$



USA.gov is the U.S. government's official web portal to all federal, state and local government web resources and services.